Year,Month,Day,Hour,Minute,Value (Times are PST for temperature in C)
2015,04,11,00,00,3.30
2015,04,11,00,01,3.20
2015,04,11,00,02,3.20
2015,04,11,00,03,3.20
2015,04,11,00,04,3.20
2015,04,11,00,05,3.20
2015,04,11,00,06,3.20
2015,04,11,00,07,3.10
2015,04,11,00,08,3.10
2015,04,11,00,09,3.10
2015,04,11,00,10,3.10
2015,04,11,00,11,3.10
2015,04,11,00,12,3.10
2015,04,11,00,13,3.10
2015,04,11,00,14,3.10
2015,04,11,00,15,3.10
2015,04,11,00,16,3.10
2015,04,11,00,17,3.10
2015,04,11,00,18,3.10
2015,04,11,00,19,3.00
2015,04,11,00,20,3.00
2015,04,11,00,21,3.00
2015,04,11,00,22,3.00
2015,04,11,00,23,3.00
2015,04,11,00,24,3.00
2015,04,11,00,25,3.00
2015,04,11,00,26,3.00
2015,04,11,00,27,3.00
2015,04,11,00,28,3.00
2015,04,11,00,29,3.00
2015,04,11,00,30,3.00
2015,04,11,00,31,3.00
2015,04,11,00,32,3.00
2015,04,11,00,33,3.10
2015,04,11,00,34,3.00
2015,04,11,00,35,3.00
2015,04,11,00,36,3.00
2015,04,11,00,37,3.00
2015,04,11,00,38,3.00
2015,04,11,00,39,2.90
2015,04,11,00,40,2.90
2015,04,11,00,41,2.90
2015,04,11,00,42,2.90
2015,04,11,00,43,2.90
2015,04,11,00,44,2.90
2015,04,11,00,45,2.90
2015,04,11,00,46,2.90
2015,04,11,00,47,2.90
2015,04,11,00,48,2.90
2015,04,11,00,49,2.90
2015,04,11,00,50,2.90
2015,04,11,00,51,2.90
2015,04,11,00,52,3.00
2015,04,11,00,53,3.00
2015,04,11,00,54,3.00
2015,04,11,00,55,3.00
2015,04,11,00,56,3.00
2015,04,11,00,57,3.00
2015,04,11,00,58,3.00
2015,04,11,00,59,3.10
2015,04,11,01,00,3.10
2015,04,11,01,01,3.10
2015,04,11,01,02,3.10
2015,04,11,01,03,3.10
2015,04,11,01,04,3.10
2015,04,11,01,05,3.10
2015,04,11,01,06,3.10
2015,04,11,01,07,3.10
2015,04,11,01,08,3.10
2015,04,11,01,09,3.10
2015,04,11,01,10,3.10
2015,04,11,01,11,3.10
2015,04,11,01,12,3.20
2015,04,11,01,13,3.20
2015,04,11,01,14,3.10
2015,04,11,01,15,3.10
2015,04,11,01,16,3.10
2015,04,11,01,17,3.10
2015,04,11,01,18,3.10
2015,04,11,01,19,3.10
2015,04,11,01,20,3.10
2015,04,11,01,21,3.10
2015,04,11,01,22,3.10
2015,04,11,01,23,3.00
2015,04,11,01,24,3.00
2015,04,11,01,25,3.00
2015,04,11,01,26,3.00
2015,04,11,01,27,2.90
2015,04,11,01,28,2.90
2015,04,11,01,29,2.90
2015,04,11,01,30,2.90
2015,04,11,01,31,2.90
2015,04,11,01,32,2.90
2015,04,11,01,33,2.90
2015,04,11,01,34,2.80
2015,04,11,01,35,2.80
2015,04,11,01,36,2.80
2015,04,11,01,37,2.80
2015,04,11,01,38,2.80
2015,04,11,01,39,2.80
2015,04,11,01,40,2.80
2015,04,11,01,41,2.70
2015,04,11,01,42,2.70
2015,04,11,01,43,2.70
2015,04,11,01,44,2.70
2015,04,11,01,45,2.70
2015,04,11,01,46,2.60
2015,04,11,01,47,2.60
2015,04,11,01,48,2.60
2015,04,11,01,49,2.60
2015,04,11,01,50,2.60
2015,04,11,01,51,2.60
2015,04,11,01,52,2.60
2015,04,11,01,53,2.60
2015,04,11,01,54,2.60
2015,04,11,01,55,2.60
2015,04,11,01,56,2.60
2015,04,11,01,57,2.60
2015,04,11,01,58,2.60
2015,04,11,01,59,2.50
2015,04,11,02,00,2.50
2015,04,11,02,01,2.50
2015,04,11,02,02,2.40
2015,04,11,02,03,2.40
2015,04,11,02,04,2.40
2015,04,11,02,05,2.40
2015,04,11,02,06,2.40
2015,04,11,02,07,2.40
2015,04,11,02,08,2.40
2015,04,11,02,09,2.50
2015,04,11,02,10,2.50
2015,04,11,02,11,2.50
2015,04,11,02,12,2.50
2015,04,11,02,13,2.50
2015,04,11,02,14,2.50
2015,04,11,02,15,2.50
2015,04,11,02,16,2.50
2015,04,11,02,17,2.50
2015,04,11,02,18,2.50
2015,04,11,02,19,2.60
2015,04,11,02,20,2.50
2015,04,11,02,21,2.50
2015,04,11,02,22,2.50
2015,04,11,02,23,2.50
2015,04,11,02,24,2.50
2015,04,11,02,25,2.50
2015,04,11,02,26,2.50
2015,04,11,02,27,2.50
2015,04,11,02,28,2.50
2015,04,11,02,29,2.50
2015,04,11,02,30,2.50
2015,04,11,02,31,2.50
2015,04,11,02,32,2.50
2015,04,11,02,33,2.50
2015,04,11,02,34,2.50
2015,04,11,02,35,2.50
2015,04,11,02,36,2.50
2015,04,11,02,37,2.50
2015,04,11,02,38,2.50
2015,04,11,02,39,2.50
2015,04,11,02,40,2.50
2015,04,11,02,41,2.50
2015,04,11,02,42,2.60
2015,04,11,02,43,2.60
2015,04,11,02,44,2.60
2015,04,11,02,45,2.60
2015,04,11,02,46,2.60
2015,04,11,02,47,2.60
2015,04,11,02,48,2.70
2015,04,11,02,49,2.70
2015,04,11,02,50,2.70
2015,04,11,02,51,2.70
2015,04,11,02,52,2.70
2015,04,11,02,53,2.70
2015,04,11,02,54,2.70
2015,04,11,02,55,2.60
2015,04,11,02,56,2.60
2015,04,11,02,57,2.50
2015,04,11,02,58,2.50
2015,04,11,02,59,2.50
2015,04,11,03,00,2.40
2015,04,11,03,01,2.40
2015,04,11,03,02,2.40
2015,04,11,03,03,2.40
2015,04,11,03,06,2.40
2015,04,11,03,07,2.40
2015,04,11,03,08,2.30
2015,04,11,03,09,2.30
2015,04,11,03,10,2.30
2015,04,11,03,11,2.30
2015,04,11,03,12,2.20
2015,04,11,03,13,2.20
2015,04,11,03,14,2.10
2015,04,11,03,15,2.10
2015,04,11,03,16,2.00
2015,04,11,03,17,1.90
2015,04,11,03,18,1.90
2015,04,11,03,19,1.80
2015,04,11,03,20,1.80
2015,04,11,03,21,1.80
2015,04,11,03,22,1.80
2015,04,11,03,23,1.80
2015,04,11,03,24,1.80
2015,04,11,03,25,1.80
2015,04,11,03,26,1.80
2015,04,11,03,27,1.80
2015,04,11,03,28,1.80
2015,04,11,03,29,1.90
2015,04,11,03,30,1.90
2015,04,11,03,31,1.90
2015,04,11,03,32,1.90
2015,04,11,03,33,1.90
2015,04,11,03,34,1.90
2015,04,11,03,35,1.90
2015,04,11,03,36,1.90
2015,04,11,03,37,2.00
2015,04,11,03,38,2.00
2015,04,11,03,39,2.00
2015,04,11,03,40,2.00
2015,04,11,03,41,2.10
2015,04,11,03,42,2.10
2015,04,11,03,43,2.00
2015,04,11,03,44,2.00
2015,04,11,03,45,2.00
2015,04,11,03,46,2.00
2015,04,11,03,47,2.00
2015,04,11,03,48,2.00
2015,04,11,03,49,2.00
2015,04,11,03,50,2.00
2015,04,11,03,51,2.00
2015,04,11,03,52,2.00
2015,04,11,03,53,2.00
2015,04,11,03,54,2.00
2015,04,11,03,55,2.00
2015,04,11,03,56,2.10
2015,04,11,03,57,2.10
2015,04,11,03,58,2.10
2015,04,11,03,59,2.10
2015,04,11,04,00,2.10
2015,04,11,04,01,2.10
2015,04,11,04,02,2.10
2015,04,11,04,03,2.00
2015,04,11,04,04,2.00
2015,04,11,04,05,2.00
2015,04,11,04,06,1.90
2015,04,11,04,07,1.90
2015,04,11,04,08,1.90
2015,04,11,04,09,1.90
2015,04,11,04,10,1.90
2015,04,11,04,11,1.90
2015,04,11,04,12,2.00
2015,04,11,04,13,1.90
2015,04,11,04,14,2.00
2015,04,11,04,15,1.90
2015,04,11,04,16,1.90
2015,04,11,04,17,1.90
2015,04,11,04,18,1.90
2015,04,11,04,19,1.90
2015,04,11,04,20,1.90
2015,04,11,04,21,1.90
2015,04,11,04,22,1.90
2015,04,11,04,23,1.90
2015,04,11,04,24,1.90
2015,04,11,04,25,1.90
2015,04,11,04,26,1.80
2015,04,11,04,27,1.80
2015,04,11,04,28,1.80
2015,04,11,04,29,1.80
2015,04,11,04,30,1.80
2015,04,11,04,31,1.80
2015,04,11,04,32,1.80
2015,04,11,04,33,1.80
2015,04,11,04,34,1.80
2015,04,11,04,35,1.80
2015,04,11,04,36,1.80
2015,04,11,04,37,1.80
2015,04,11,04,38,1.80
2015,04,11,04,39,1.70
2015,04,11,04,40,1.70
2015,04,11,04,41,1.70
2015,04,11,04,42,1.70
2015,04,11,04,43,1.80
2015,04,11,04,44,1.80
2015,04,11,04,45,1.90
2015,04,11,04,46,1.90
2015,04,11,04,47,2.00
2015,04,11,04,48,2.10
2015,04,11,04,49,2.10
2015,04,11,04,50,2.10
2015,04,11,04,51,2.20
2015,04,11,04,52,2.20
2015,04,11,04,53,2.10
2015,04,11,04,54,2.10
2015,04,11,04,55,2.00
2015,04,11,04,56,2.00
2015,04,11,04,57,1.90
2015,04,11,04,58,1.90
2015,04,11,04,59,1.90
2015,04,11,05,00,1.90
2015,04,11,05,01,1.80
2015,04,11,05,02,1.80
2015,04,11,05,03,1.80
2015,04,11,05,04,1.80
2015,04,11,05,05,1.80
2015,04,11,05,06,1.80
2015,04,11,05,07,1.80
2015,04,11,05,08,1.80
2015,04,11,05,09,1.80
2015,04,11,05,10,1.80
2015,04,11,05,11,1.80
2015,04,11,05,12,1.90
2015,04,11,05,13,1.90
2015,04,11,05,14,1.90
2015,04,11,05,15,1.90
2015,04,11,05,16,2.00
2015,04,11,05,17,2.00
2015,04,11,05,18,2.00
2015,04,11,05,19,2.10
2015,04,11,05,20,2.10
2015,04,11,05,21,2.10
2015,04,11,05,22,2.10
2015,04,11,05,23,2.10
2015,04,11,05,24,2.10
2015,04,11,05,25,2.10
2015,04,11,05,26,2.10
2015,04,11,05,27,2.10
2015,04,11,05,28,2.10
2015,04,11,05,29,2.10
2015,04,11,05,30,2.20
2015,04,11,05,31,2.20
2015,04,11,05,32,2.20
2015,04,11,05,33,2.20
2015,04,11,05,34,2.20
2015,04,11,05,35,2.10
2015,04,11,05,36,2.10
2015,04,11,05,37,2.10
2015,04,11,05,38,2.10
2015,04,11,05,39,2.10
2015,04,11,05,40,2.10
2015,04,11,05,41,2.10
2015,04,11,05,42,2.10
2015,04,11,05,43,2.10
2015,04,11,05,44,2.10
2015,04,11,05,45,2.10
2015,04,11,05,46,2.10
2015,04,11,05,47,2.10
2015,04,11,05,48,2.10
2015,04,11,05,49,2.00
2015,04,11,05,50,2.00
2015,04,11,05,51,2.00
2015,04,11,05,52,2.10
2015,04,11,05,53,2.10
2015,04,11,05,54,2.10
2015,04,11,05,55,2.10
2015,04,11,05,56,2.10
2015,04,11,05,57,2.10
2015,04,11,05,58,2.10
2015,04,11,05,59,2.10
2015,04,11,06,00,2.10
2015,04,11,06,01,2.10
2015,04,11,06,02,2.10
2015,04,11,06,03,2.10
2015,04,11,06,04,2.10
2015,04,11,06,05,2.10
2015,04,11,06,06,2.10
2015,04,11,06,07,2.10
2015,04,11,06,08,2.10
2015,04,11,06,09,2.10
2015,04,11,06,10,2.10
2015,04,11,06,11,2.10
2015,04,11,06,12,2.10
2015,04,11,06,13,2.20
2015,04,11,06,14,2.20
2015,04,11,06,15,2.20
2015,04,11,06,16,2.20
2015,04,11,06,17,2.20
2015,04,11,06,18,2.20
2015,04,11,06,19,2.30
2015,04,11,06,20,2.30
2015,04,11,06,21,2.40
2015,04,11,06,22,2.50
2015,04,11,06,23,2.50
2015,04,11,06,24,2.50
2015,04,11,06,25,2.50
2015,04,11,06,26,2.50
2015,04,11,06,27,2.50
2015,04,11,06,28,2.40
2015,04,11,06,29,2.40
2015,04,11,06,30,2.40
2015,04,11,06,31,2.40
2015,04,11,06,32,2.40
2015,04,11,06,33,2.50
2015,04,11,06,34,2.50
2015,04,11,06,35,2.50
2015,04,11,06,36,2.50
2015,04,11,06,37,2.40
2015,04,11,06,38,2.40
2015,04,11,06,39,2.40
2015,04,11,06,40,2.40
2015,04,11,06,41,2.40
2015,04,11,06,42,2.40
2015,04,11,06,43,2.40
2015,04,11,06,44,2.40
2015,04,11,06,45,2.30
2015,04,11,06,46,2.30
2015,04,11,06,47,2.30
2015,04,11,06,48,2.20
2015,04,11,06,49,2.20
2015,04,11,06,50,2.20
2015,04,11,06,51,2.20
2015,04,11,06,52,2.10
2015,04,11,06,53,2.10
2015,04,11,06,54,2.20
2015,04,11,06,55,2.20
2015,04,11,06,56,2.20
2015,04,11,06,57,2.20
2015,04,11,06,58,2.20
2015,04,11,06,59,2.20
2015,04,11,07,00,2.20
2015,04,11,07,01,2.20
2015,04,11,07,02,2.20
2015,04,11,07,03,2.20
2015,04,11,07,04,2.20
2015,04,11,07,05,2.20
2015,04,11,07,06,2.20
2015,04,11,07,07,2.20
2015,04,11,07,08,2.20
2015,04,11,07,09,2.20
2015,04,11,07,10,2.20
2015,04,11,07,11,2.20
2015,04,11,07,12,2.20
2015,04,11,07,13,2.30
2015,04,11,07,14,2.30
2015,04,11,07,15,2.40
2015,04,11,07,16,2.50
2015,04,11,07,17,2.70
2015,04,11,07,18,2.70
2015,04,11,07,19,2.70
2015,04,11,07,20,2.80
2015,04,11,07,21,2.80
2015,04,11,07,22,2.80
2015,04,11,07,23,2.90
2015,04,11,07,24,2.90
2015,04,11,07,25,2.90
2015,04,11,07,26,2.90
2015,04,11,07,27,3.00
2015,04,11,07,28,3.00
2015,04,11,07,29,3.10
2015,04,11,07,30,3.10
2015,04,11,07,31,3.20
2015,04,11,07,32,3.20
2015,04,11,07,33,3.20
2015,04,11,07,34,3.30
2015,04,11,07,35,3.40
2015,04,11,07,36,3.40
2015,04,11,07,37,3.50
2015,04,11,07,38,3.50
2015,04,11,07,39,3.60
2015,04,11,07,40,3.60
2015,04,11,07,41,3.70
2015,04,11,07,42,3.70
2015,04,11,07,43,3.70
2015,04,11,07,44,3.70
2015,04,11,07,45,3.70
2015,04,11,07,46,3.80
2015,04,11,07,47,3.80
2015,04,11,07,48,3.80
2015,04,11,07,49,3.80
2015,04,11,07,50,3.80
2015,04,11,07,51,3.80
2015,04,11,07,52,3.80
2015,04,11,07,53,3.80
2015,04,11,07,54,3.80
2015,04,11,07,55,3.80
2015,04,11,07,56,3.80
2015,04,11,07,57,3.80
2015,04,11,07,58,3.80
2015,04,11,07,59,3.60
2015,04,11,08,00,3.50
2015,04,11,08,01,3.40
2015,04,11,08,02,3.30
2015,04,11,08,03,3.30
2015,04,11,08,04,3.20
2015,04,11,08,05,3.20
2015,04,11,08,06,3.20
2015,04,11,08,07,3.20
2015,04,11,08,08,3.10
2015,04,11,08,09,3.10
2015,04,11,08,10,3.10
2015,04,11,08,11,3.10
2015,04,11,08,12,3.10
2015,04,11,08,13,3.20
2015,04,11,08,14,3.20
2015,04,11,08,15,3.20
2015,04,11,08,16,3.20
2015,04,11,08,17,3.30
2015,04,11,08,18,3.30
2015,04,11,08,19,3.40
2015,04,11,08,20,3.40
2015,04,11,08,21,3.50
2015,04,11,08,22,3.50
2015,04,11,08,23,3.60
2015,04,11,08,24,3.70
2015,04,11,08,25,3.70
2015,04,11,08,26,3.80
2015,04,11,08,27,3.80
2015,04,11,08,28,3.90
2015,04,11,08,29,3.90
2015,04,11,08,30,3.90
2015,04,11,08,31,4.00
2015,04,11,08,32,4.00
2015,04,11,08,33,4.00
2015,04,11,08,34,4.00
2015,04,11,08,35,4.00
2015,04,11,08,36,4.10
2015,04,11,08,37,4.10
2015,04,11,08,38,4.10
2015,04,11,08,39,4.10
2015,04,11,08,40,4.10
2015,04,11,08,41,4.10
2015,04,11,08,42,4.10
2015,04,11,08,43,4.20
2015,04,11,08,44,4.20
2015,04,11,08,45,4.30
2015,04,11,08,46,4.30
2015,04,11,08,47,4.30
2015,04,11,08,48,4.30
2015,04,11,08,49,4.40
2015,04,11,08,50,4.40
2015,04,11,08,51,4.40
2015,04,11,08,52,4.50
2015,04,11,08,53,4.50
2015,04,11,08,54,4.50
2015,04,11,08,55,4.60
2015,04,11,08,56,4.60
2015,04,11,08,57,4.60
2015,04,11,08,58,4.70
2015,04,11,08,59,4.70
2015,04,11,09,00,4.70
2015,04,11,09,01,4.70
2015,04,11,09,02,4.60
2015,04,11,09,03,4.60
2015,04,11,09,04,4.50
2015,04,11,09,05,4.40
2015,04,11,09,06,4.40
2015,04,11,09,07,4.40
2015,04,11,09,08,4.40
2015,04,11,09,09,4.50
2015,04,11,09,10,4.50
2015,04,11,09,11,4.60
2015,04,11,09,12,4.70
2015,04,11,09,13,4.80
2015,04,11,09,14,4.90
2015,04,11,09,15,5.00
2015,04,11,09,16,5.10
2015,04,11,09,17,5.10
2015,04,11,09,18,5.20
2015,04,11,09,19,5.20
2015,04,11,09,20,5.20
2015,04,11,09,21,5.30
2015,04,11,09,22,5.30
2015,04,11,09,23,5.40
2015,04,11,09,24,5.50
2015,04,11,09,25,5.50
2015,04,11,09,26,5.60
2015,04,11,09,27,5.70
2015,04,11,09,28,5.90
2015,04,11,09,29,6.00
2015,04,11,09,30,6.10
2015,04,11,09,31,6.10
2015,04,11,09,32,6.10
2015,04,11,09,33,6.00
2015,04,11,09,34,5.90
2015,04,11,09,35,6.00
2015,04,11,09,36,6.10
2015,04,11,09,37,6.10
2015,04,11,09,38,6.10
2015,04,11,09,39,6.10
2015,04,11,09,40,6.20
2015,04,11,09,41,6.20
2015,04,11,09,42,6.30
2015,04,11,09,43,6.30
2015,04,11,09,44,6.40
2015,04,11,09,45,6.50
2015,04,11,09,46,6.50
2015,04,11,09,47,6.60
2015,04,11,09,48,6.70
2015,04,11,09,49,6.80
2015,04,11,09,50,6.80
2015,04,11,09,51,6.80
2015,04,11,09,52,6.80
2015,04,11,09,53,6.80
2015,04,11,09,54,6.80
2015,04,11,09,55,6.80
2015,04,11,09,56,6.80
2015,04,11,09,57,6.80
2015,04,11,09,58,6.90
2015,04,11,09,59,6.90
2015,04,11,10,00,7.00
2015,04,11,10,01,7.00
2015,04,11,10,02,7.00
2015,04,11,10,03,7.00
2015,04,11,10,04,7.10
2015,04,11,10,05,7.10
2015,04,11,10,06,7.00
2015,04,11,10,07,6.90
2015,04,11,10,08,6.90
2015,04,11,10,09,6.90
2015,04,11,10,10,6.90
2015,04,11,10,11,6.90
2015,04,11,10,12,7.00
2015,04,11,10,13,7.00
2015,04,11,10,14,7.00
2015,04,11,10,15,7.00
2015,04,11,10,16,7.00
2015,04,11,10,17,7.00
2015,04,11,10,18,7.00
2015,04,11,10,19,7.00
2015,04,11,10,20,7.10
2015,04,11,10,21,7.10
2015,04,11,10,22,7.10
2015,04,11,10,23,7.10
2015,04,11,10,24,7.10
2015,04,11,10,25,7.20
2015,04,11,10,26,7.30
2015,04,11,10,27,7.30
2015,04,11,10,28,7.40
2015,04,11,10,29,7.40
2015,04,11,10,30,7.40
2015,04,11,10,31,7.40
2015,04,11,10,32,7.40
2015,04,11,10,33,7.50
2015,04,11,10,34,7.50
2015,04,11,10,35,7.50
2015,04,11,10,36,7.60
2015,04,11,10,37,7.60
2015,04,11,10,38,7.70
2015,04,11,10,39,7.70
2015,04,11,10,40,7.80
2015,04,11,10,41,7.80
2015,04,11,10,42,7.80
2015,04,11,10,43,7.80
2015,04,11,10,44,7.80
2015,04,11,10,45,7.70
2015,04,11,10,46,7.70
2015,04,11,10,47,7.70
2015,04,11,10,48,7.70
2015,04,11,10,49,7.70
2015,04,11,10,50,7.70
2015,04,11,10,51,7.70
2015,04,11,10,52,7.70
2015,04,11,10,53,7.70
2015,04,11,10,54,7.70
2015,04,11,10,55,7.70
2015,04,11,10,56,7.80
2015,04,11,10,57,7.80
2015,04,11,10,58,7.80
2015,04,11,10,59,7.80
2015,04,11,11,00,7.80
2015,04,11,11,01,7.80
2015,04,11,11,02,7.90
2015,04,11,11,03,7.90
2015,04,11,11,04,8.00
2015,04,11,11,05,8.00
2015,04,11,11,06,8.00
2015,04,11,11,07,8.00
2015,04,11,11,08,7.90
2015,04,11,11,09,7.80
2015,04,11,11,10,7.80
2015,04,11,11,11,7.80
2015,04,11,11,12,7.80
2015,04,11,11,13,7.70
2015,04,11,11,14,7.70
2015,04,11,11,15,7.80
2015,04,11,11,16,7.80
2015,04,11,11,17,7.80
2015,04,11,11,18,7.80
2015,04,11,11,19,7.80
2015,04,11,11,20,7.80
2015,04,11,11,21,7.80
2015,04,11,11,22,7.80
2015,04,11,11,23,7.90
2015,04,11,11,24,7.90
2015,04,11,11,25,7.90
2015,04,11,11,26,8.00
2015,04,11,11,27,8.00
2015,04,11,11,28,8.10
2015,04,11,11,29,8.20
2015,04,11,11,30,8.30
2015,04,11,11,31,8.40
2015,04,11,11,32,8.40
2015,04,11,11,33,8.40
2015,04,11,11,34,8.50
2015,04,11,11,35,8.60
2015,04,11,11,36,8.60
2015,04,11,11,37,8.60
2015,04,11,11,38,8.60
2015,04,11,11,39,8.60
2015,04,11,11,40,8.70
2015,04,11,11,41,8.70
2015,04,11,11,42,8.70
2015,04,11,11,43,8.60
2015,04,11,11,44,8.60
2015,04,11,11,45,8.60
2015,04,11,11,46,8.60
2015,04,11,11,47,8.60
2015,04,11,11,48,8.60
2015,04,11,11,49,8.70
2015,04,11,11,50,8.80
2015,04,11,11,51,8.80
2015,04,11,11,52,8.80
2015,04,11,11,53,8.90
2015,04,11,11,54,8.90
2015,04,11,11,55,8.90
2015,04,11,11,56,9.00
2015,04,11,11,57,9.00
2015,04,11,11,58,9.00
2015,04,11,11,59,9.00
2015,04,11,12,00,8.90
2015,04,11,12,01,8.90
2015,04,11,12,02,8.80
2015,04,11,12,03,8.80
2015,04,11,12,04,8.80
2015,04,11,12,05,8.80
2015,04,11,12,06,8.80
2015,04,11,12,07,8.80
2015,04,11,12,08,8.80
2015,04,11,12,09,8.80
2015,04,11,12,10,8.70
2015,04,11,12,11,8.70
2015,04,11,12,12,8.60
2015,04,11,12,13,8.40
2015,04,11,12,14,8.40
2015,04,11,12,15,8.50
2015,04,11,12,16,8.50
2015,04,11,12,17,8.50
2015,04,11,12,18,8.60
2015,04,11,12,19,8.60
2015,04,11,12,20,8.70
2015,04,11,12,21,8.80
2015,04,11,12,22,8.90
2015,04,11,12,23,9.00
2015,04,11,12,24,9.10
2015,04,11,12,25,9.10
2015,04,11,12,26,9.00
2015,04,11,12,27,9.00
2015,04,11,12,28,9.10
2015,04,11,12,29,9.20
2015,04,11,12,30,9.20
2015,04,11,12,31,9.20
2015,04,11,12,32,9.20
2015,04,11,12,33,9.20
2015,04,11,12,34,9.20
2015,04,11,12,35,9.20
2015,04,11,12,36,9.20
2015,04,11,12,37,9.20
2015,04,11,12,38,9.10
2015,04,11,12,39,9.00
2015,04,11,12,40,8.90
2015,04,11,12,41,8.90
2015,04,11,12,42,8.90
2015,04,11,12,43,9.00
2015,04,11,12,44,9.00
2015,04,11,12,45,9.00
2015,04,11,12,46,9.10
2015,04,11,12,47,9.10
2015,04,11,12,48,9.10
2015,04,11,12,49,9.10
2015,04,11,12,50,9.10
2015,04,11,12,51,9.20
2015,04,11,12,52,9.20
2015,04,11,12,53,9.30
2015,04,11,12,54,9.30
2015,04,11,12,55,9.30
2015,04,11,12,56,9.30
2015,04,11,12,57,9.20
2015,04,11,12,58,9.10
2015,04,11,12,59,8.90
2015,04,11,13,00,8.80
2015,04,11,13,01,8.70
2015,04,11,13,02,8.70
2015,04,11,13,03,8.60
2015,04,11,13,04,8.40
2015,04,11,13,05,8.30
2015,04,11,13,06,8.20
2015,04,11,13,07,8.10
2015,04,11,13,08,7.90
2015,04,11,13,09,7.50
2015,04,11,13,10,7.20
2015,04,11,13,11,6.90
2015,04,11,13,12,6.60
2015,04,11,13,13,6.40
2015,04,11,13,14,6.30
2015,04,11,13,15,6.20
2015,04,11,13,16,6.10
2015,04,11,13,17,6.10
2015,04,11,13,18,6.00
2015,04,11,13,19,6.00
2015,04,11,13,20,5.90
2015,04,11,13,21,5.90
2015,04,11,13,22,5.90
2015,04,11,13,23,5.80
2015,04,11,13,24,5.80
2015,04,11,13,25,5.70
2015,04,11,13,26,5.60
2015,04,11,13,27,5.60
2015,04,11,13,28,5.50
2015,04,11,13,29,5.40
2015,04,11,13,30,5.30
2015,04,11,13,31,5.20
2015,04,11,13,32,5.20
2015,04,11,13,33,5.20
2015,04,11,13,34,5.20
2015,04,11,13,35,5.20
2015,04,11,13,36,5.20
2015,04,11,13,37,5.10
2015,04,11,13,38,5.10
2015,04,11,13,39,5.10
2015,04,11,13,40,5.10
2015,04,11,13,41,5.20
2015,04,11,13,42,5.20
2015,04,11,13,43,5.30
2015,04,11,13,44,5.40
2015,04,11,13,45,5.40
2015,04,11,13,46,5.50
2015,04,11,13,47,5.50
2015,04,11,13,48,5.60
2015,04,11,13,49,5.60
2015,04,11,13,50,5.70
2015,04,11,13,51,5.80
2015,04,11,13,52,5.90
2015,04,11,13,53,6.00
2015,04,11,13,54,6.10
2015,04,11,13,55,6.10
2015,04,11,13,56,6.10
2015,04,11,13,57,6.20
2015,04,11,13,58,6.30
2015,04,11,13,59,6.40
2015,04,11,14,00,6.50
2015,04,11,14,01,6.60
2015,04,11,14,02,6.70
2015,04,11,14,03,6.70
2015,04,11,14,04,6.70
2015,04,11,14,05,6.70
2015,04,11,14,06,6.70
2015,04,11,14,07,6.80
2015,04,11,14,08,6.80
2015,04,11,14,09,6.80
2015,04,11,14,10,6.80
2015,04,11,14,11,6.80
2015,04,11,14,12,6.90
2015,04,11,14,13,7.00
2015,04,11,14,14,7.10
2015,04,11,14,15,7.20
2015,04,11,14,16,7.40
2015,04,11,14,17,7.50
2015,04,11,14,18,7.60
2015,04,11,14,19,7.70
2015,04,11,14,20,7.80
2015,04,11,14,21,7.90
2015,04,11,14,22,7.90
2015,04,11,14,23,7.90
2015,04,11,14,24,8.00
2015,04,11,14,25,8.00
2015,04,11,14,26,8.10
2015,04,11,14,27,8.20
2015,04,11,14,28,8.20
2015,04,11,14,29,8.20
2015,04,11,14,30,8.30
2015,04,11,14,31,8.30
2015,04,11,14,32,8.30
2015,04,11,14,33,8.40
2015,04,11,14,34,8.50
2015,04,11,14,35,8.60
2015,04,11,14,36,8.60
2015,04,11,14,37,8.60
2015,04,11,14,38,8.50
2015,04,11,14,39,8.50
2015,04,11,14,40,8.50
2015,04,11,14,41,8.50
2015,04,11,14,42,8.60
2015,04,11,14,43,8.60
2015,04,11,14,44,8.70
2015,04,11,14,45,8.70
2015,04,11,14,46,8.80
2015,04,11,14,47,8.90
2015,04,11,14,48,8.90
2015,04,11,14,49,8.80
2015,04,11,14,50,8.80
2015,04,11,14,51,8.70
2015,04,11,14,52,8.70
2015,04,11,14,53,8.70
2015,04,11,14,54,8.70
2015,04,11,14,55,8.70
2015,04,11,14,56,8.70
2015,04,11,14,57,8.70
2015,04,11,14,58,8.80
2015,04,11,14,59,8.90
2015,04,11,15,00,8.90
2015,04,11,15,01,9.00
2015,04,11,15,02,9.10
2015,04,11,15,03,9.10
2015,04,11,15,04,9.20
2015,04,11,15,05,9.30
2015,04,11,15,06,9.30
2015,04,11,15,07,9.30
2015,04,11,15,08,9.30
2015,04,11,15,09,9.30
2015,04,11,15,10,9.30
2015,04,11,15,11,9.30
2015,04,11,15,12,9.20
2015,04,11,15,13,9.20
2015,04,11,15,14,9.10
2015,04,11,15,15,9.10
2015,04,11,15,16,9.00
2015,04,11,15,17,8.90
2015,04,11,15,18,8.90
2015,04,11,15,19,8.90
2015,04,11,15,20,8.90
2015,04,11,15,21,8.90
2015,04,11,15,22,8.80
2015,04,11,15,23,8.80
2015,04,11,15,24,8.70
2015,04,11,15,25,8.70
2015,04,11,15,26,8.70
2015,04,11,15,27,8.60
2015,04,11,15,28,8.60
2015,04,11,15,29,8.60
2015,04,11,15,30,8.60
2015,04,11,15,31,8.60
2015,04,11,15,32,8.60
2015,04,11,15,33,8.60
2015,04,11,15,34,8.60
2015,04,11,15,35,8.70
2015,04,11,15,36,8.70
2015,04,11,15,37,8.70
2015,04,11,15,38,8.70
2015,04,11,15,39,8.70
2015,04,11,15,40,8.70
2015,04,11,15,41,8.70
2015,04,11,15,42,8.70
2015,04,11,15,43,8.70
2015,04,11,15,44,8.70
2015,04,11,15,45,8.70
2015,04,11,15,46,8.70
2015,04,11,15,47,8.70
2015,04,11,15,48,8.60
2015,04,11,15,49,8.60
2015,04,11,15,50,8.50
2015,04,11,15,51,8.40
2015,04,11,15,52,8.40
2015,04,11,15,53,8.40
2015,04,11,15,54,8.30
2015,04,11,15,55,8.30
2015,04,11,15,56,8.30
2015,04,11,15,57,8.30
2015,04,11,15,58,8.20
2015,04,11,15,59,8.20
2015,04,11,16,00,8.10
2015,04,11,16,01,7.90
2015,04,11,16,02,7.80
2015,04,11,16,03,7.70
2015,04,11,16,04,7.60
2015,04,11,16,05,7.60
2015,04,11,16,06,7.50
2015,04,11,16,07,7.50
2015,04,11,16,08,7.40
2015,04,11,16,09,7.40
2015,04,11,16,10,7.30
2015,04,11,16,11,7.30
2015,04,11,16,12,7.30
2015,04,11,16,13,7.30
2015,04,11,16,14,7.30
2015,04,11,16,15,7.30
2015,04,11,16,16,7.20
2015,04,11,16,17,7.10
2015,04,11,16,18,7.10
2015,04,11,16,19,7.10
2015,04,11,16,20,7.00
2015,04,11,16,21,6.90
2015,04,11,16,22,6.90
2015,04,11,16,23,6.80
2015,04,11,16,24,6.80
2015,04,11,16,25,6.80
2015,04,11,16,26,6.80
2015,04,11,16,27,6.80
2015,04,11,16,28,6.70
2015,04,11,16,29,6.70
2015,04,11,16,30,6.70
2015,04,11,16,31,6.70
2015,04,11,16,32,6.70
2015,04,11,16,33,6.70
2015,04,11,16,34,6.60
2015,04,11,16,35,6.60
2015,04,11,16,36,6.60
2015,04,11,16,37,6.50
2015,04,11,16,38,6.50
2015,04,11,16,39,6.50
2015,04,11,16,40,6.50
2015,04,11,16,41,6.50
2015,04,11,16,42,6.50
2015,04,11,16,43,6.40
2015,04,11,16,44,6.40
2015,04,11,16,45,6.30
2015,04,11,16,46,6.30
2015,04,11,16,47,6.30
2015,04,11,16,48,6.30
2015,04,11,16,49,6.20
2015,04,11,16,50,6.20
2015,04,11,16,51,6.10
2015,04,11,16,52,6.00
2015,04,11,16,53,6.00
2015,04,11,16,54,6.00
2015,04,11,16,55,6.00
2015,04,11,16,56,6.10
2015,04,11,16,57,6.10
2015,04,11,16,58,6.10
2015,04,11,16,59,6.10
2015,04,11,17,00,6.20
2015,04,11,17,01,6.20
2015,04,11,17,02,6.20
2015,04,11,17,03,6.20
2015,04,11,17,04,6.20
2015,04,11,17,05,6.20
2015,04,11,17,06,6.20
2015,04,11,17,07,6.20
2015,04,11,17,08,6.10
2015,04,11,17,09,6.10
2015,04,11,17,10,6.10
2015,04,11,17,11,6.10
2015,04,11,17,12,6.10
2015,04,11,17,13,6.00
2015,04,11,17,14,6.00
2015,04,11,17,15,6.00
2015,04,11,17,16,6.00
2015,04,11,17,17,6.00
2015,04,11,17,18,6.00
2015,04,11,17,19,6.00
2015,04,11,17,20,6.00
2015,04,11,17,21,6.00
2015,04,11,17,22,6.10
2015,04,11,17,23,6.10
2015,04,11,17,24,6.00
2015,04,11,17,25,6.00
2015,04,11,17,26,6.00
2015,04,11,17,27,6.00
2015,04,11,17,28,6.00
2015,04,11,17,29,6.00
2015,04,11,17,30,6.00
2015,04,11,17,31,6.10
2015,04,11,17,32,6.10
2015,04,11,17,33,6.00
2015,04,11,17,34,6.00
2015,04,11,17,35,6.10
2015,04,11,17,36,6.10
2015,04,11,17,37,6.10
2015,04,11,17,38,6.10
2015,04,11,17,39,6.10
2015,04,11,17,40,6.20
2015,04,11,17,41,6.30
2015,04,11,17,42,6.30
2015,04,11,17,43,6.40
2015,04,11,17,44,6.50
2015,04,11,17,45,6.50
2015,04,11,17,46,6.60
2015,04,11,17,47,6.70
2015,04,11,17,48,6.70
2015,04,11,17,49,6.80
2015,04,11,17,50,6.80
2015,04,11,17,51,6.80
2015,04,11,17,52,6.80
2015,04,11,17,53,6.80
2015,04,11,17,54,6.90
2015,04,11,17,55,6.90
2015,04,11,17,56,6.80
2015,04,11,17,57,6.80
2015,04,11,17,58,6.80
2015,04,11,17,59,6.80
2015,04,11,18,00,6.80
2015,04,11,18,01,6.70
2015,04,11,18,02,6.70
2015,04,11,18,03,6.70
2015,04,11,18,04,6.60
2015,04,11,18,05,6.60
2015,04,11,18,06,6.60
2015,04,11,18,07,6.50
2015,04,11,18,08,6.40